[[[{"header":{"parameterUnit":"kt","parameterCategory":2,"dx":1,"dy":1,"la1":30.253999710083008,"la2":30.299108505249023,"lo1":-89.0895004272461,"lo2":-89.04439544677734,"nx":28,"ny":28,"refTime":"2022-09-18T21:00:00:Z","depth":0,"parameterNumber":1,"parameterNumberName":"U-component_of_WINDS"},"data":[-2.021,-2.0246,-2.0175,-2.0186,-2.0123,-2.0119,-2.0095,-2.0057,-2.0009,-1.9998,-1.998,-1.9913,-1.9839,-1.9802,-1.978,-1.9751,-1.9749,-1.9816,-1.9771,-1.9532,-1.9494,-1.9458,-1.9444,-1.9816,-1.9816,-2.0029,-2.0031,-2.0032,-2.0051,-1.9989,-1.9972,-1.9907,-1.9893,-1.9786,-1.9727,-1.9723,-1.9722,-1.9662,-1.9639,-1.9624,-1.9603,-1.9502,-1.9471,-1.949,-1.9439,-1.9488,-1.9486,-1.9477,-1.9218,-1.9204,-1.953,-1.953,-1.953,-1.953,-1.953,-1.953,-1.9742,-1.9766,-1.9682,-1.9662,-1.9609,-1.9567,-1.9578,-1.9492,-1.9476,-1.9431,-1.9347,-1.9345,-1.9272,-1.9197,-1.9154,-1.9153,-1.9086,-1.9116,-1.9125,-1.9135,-1.9158,-1.8869,-1.9143,-1.9142,-1.9141,-1.914,-1.9139,0,-1.9493,-1.943,-1.9406,-1.9363,-1.9343,-1.9302,-1.9252,-1.9257,-1.9098,-1.9091,-1.9075,-1.9054,-1.9014,-1.8992,-1.8945,-1.8891,-1.878,-1.8759,-1.8781,-1.8823,-1.887,-1.885,-1.8435,-1.8752,-1.8748,-1.8746,-1.8744,-1.8742,-1.9179,-1.9213,-1.9087,-1.9081,-1.9033,-1.9026,-1.9006,-1.8861,-1.8848,-1.8766,-1.8795,-1.8769,-1.8741,-1.8729,-1.8629,-1.8598,-1.8544,-1.8674,-1.8539,-1.8579,-1.855,-1.8551,-1.8555,-1.8704,-1.8709,-1.8713,-1.8716,0,-1.901,-1.8885,-1.8914,-1.8784,-1.8753,-1.8798,-1.8688,-1.8706,-1.8618,-1.8631,-1.8626,-1.8489,-1.8476,-1.8352,-1.8311,-1.8248,-1.8328,-1.8274,-1.8354,-1.8337,-1.8444,-1.8437,-1.8801,-1.8843,-1.8454,-1.8457,-1.8461,0,-1.8693,-1.8743,-1.8555,-1.8578,-1.863,-1.848,-1.8537,-1.8465,-1.8394,-1.8402,-1.8252,-1.8264,-1.8101,-1.8097,-1.8002,-1.8044,-1.8035,-1.799,-1.7964,-1.8004,-1.8011,-1.7996,-1.798,-1.79,-1.7898,-1.7897,-1.7895,0,-1.8443,-1.8397,-1.8433,-1.8402,-1.8267,-1.8289,-1.8234,-1.8151,-1.8132,-1.8088,-1.8075,-1.8035,-1.8014,-1.7987,-1.7865,-1.7779,-1.7912,-1.7768,-1.7866,-1.787,-1.7903,-1.7903,-1.8255,-1.7893,-1.7893,-1.7892,-1.7892,0,-1.8167,-1.8121,-1.819,-1.8073,-1.8067,-1.8091,-1.8039,-1.8029,-1.7953,-1.7892,-1.7856,-1.774,-1.7762,-1.7629,-1.7659,-1.7582,-1.7571,-1.7528,-1.7532,-1.7528,-1.7382,-1.7602,-1.7948,-1.7981,-1.7525,-1.7522,-1.7519,0,-1.7918,-1.795,-1.7819,-1.7887,-1.7885,-1.7714,-1.7737,-1.7672,-1.7592,-1.7581,-1.7493,-1.7482,-1.7355,-1.7333,-1.7365,-1.7275,-1.7377,-1.7257,-1.725,-1.7252,-1.7278,-1.7595,-1.7678,-1.7886,-1.7478,-1.7482,-1.7485,0,-1.7706,-1.7535,-1.7556,-1.7515,-1.7399,-1.7395,-1.7422,-1.7374,-1.7374,-1.7314,-1.7335,-1.7313,-1.7217,-1.7182,-1.7082,-1.7122,-1.7304,-1.7013,-1.7009,-1.7073,-1.7444,-1.7525,-1.756,-1.7228,-1.7233,-1.7237,-1.7452,0,-1.7325,-1.7322,-1.7371,-1.7281,-1.7257,-1.729,-1.7149,-1.7142,-1.7047,-1.696,-1.6986,-1.6896,-1.6849,-1.6852,-1.6759,-1.6887,-1.6846,-1.6743,-1.6604,-1.6812,-1.688,-1.6907,-1.6515,-1.651,-1.6506,-1.6502,0,0,-1.7119,-1.7109,-1.6959,-1.6976,-1.6946,-1.6764,-1.6812,-1.6762,-1.6666,-1.6651,-1.6571,-1.6528,-1.6458,-1.6504,-1.6557,-1.6537,-1.6549,-1.6479,-1.6713,-1.6737,-1.6759,-1.6834,-1.6865,-1.6495,-1.6494,-1.6492,-1.6491,0,-1.6948,-1.6874,-1.6921,-1.6861,-1.6767,-1.667,-1.6683,-1.6557,-1.6503,-1.6523,-1.6374,-1.6372,-1.6338,-1.6285,-1.6254,-1.647,-1.6359,-1.6466,-1.6631,-1.6676,-1.6706,-1.6732,-1.6812,-1.6843,-1.6481,-1.6481,-1.6482,0,-1.6717,-1.6622,-1.6628,-1.6546,-1.6482,-1.6482,-1.6301,-1.6307,-1.6306,-1.6106,-1.6129,-1.606,-1.5975,-1.6034,-1.6056,-1.5984,-1.6195,-1.6101,-1.6123,-1.6123,-1.616,-1.6196,-1.6228,-1.5809,-1.5807,-1.5805,0,0,-1.659,-1.6583,-1.6434,-1.6498,-1.6468,-1.6324,-1.6308,-1.6209,-1.6133,-1.6104,-1.6011,-1.5946,-1.5924,-1.5914,-1.5886,-1.5971,-1.5943,-1.6024,-1.6055,-1.6082,-1.6096,-1.6141,-1.6176,-1.5798,-1.5798,-1.5798,0,0,-1.6529,-1.6357,-1.6271,-1.6327,-1.626,-1.6118,-1.6164,-1.6057,-1.6016,-1.5996,-1.583,-1.5805,-1.5857,-1.5795,-1.5722,-1.5835,-1.5699,-1.5714,-1.5873,-1.5911,-1.5942,-1.5957,-1.5524,0,0,0,0,0,-1.628,-1.6377,-1.6302,-1.6289,-1.6183,-1.616,-1.6146,-1.6009,-1.5917,-1.5958,-1.5864,-1.5742,-1.5722,-1.5654,-1.5646,-1.5728,-1.5713,-1.5728,-1.5742,-1.5967,-1.6008,-1.6043,0,0,0,0,0,0,-1.6273,-1.6259,-1.6299,-1.6163,-1.6137,-1.6155,-1.5969,-1.5935,-1.5909,-1.5886,-1.5764,-1.5738,-1.5623,-1.5649,-1.5644,-1.5725,-1.5526,-1.5718,-1.5731,-1.5743,-1.5981,-1.6015,-1.6044,0,0,0,0,0,-1.6268,-1.6256,-1.6121,-1.616,-1.6138,-1.5981,-1.5964,-1.5934,-1.5912,-1.5764,-1.5734,-1.5811,-1.5629,-1.5615,-1.5645,-1.5731,-1.5528,-1.5527,-1.5727,-1.5737,-1.5746,-1.5998,0,0,0,0,0,0,-1.6264,-1.6229,-1.6113,-1.6101,-1.6111,-1.5977,-1.5951,-1.5934,-1.5789,-1.576,-1.5803,-1.5786,-1.5634,-1.5622,-1.5613,-1.5741,-1.5531,-1.5529,-1.5528,-1.5735,-1.5743,-1.575,0,0,0,0,0,0,-1.6234,-1.622,-1.6107,-1.6053,-1.6034,-1.5974,-1.5951,-1.5956,-1.579,-1.5835,-1.5816,-1.5797,-1.5649,-1.5628,-1.562,-1.5633,-1.5532,-1.5531,-1.553,-1.5529,-1.5741,-1.5747,0,0,0,0,0,0,-1.6226,-1.6214,-1.6055,-1.6041,-1.6023,-1.5883,-1.5976,-1.5876,-1.5742,-1.5845,-1.5726,-1.5719,-1.5659,-1.5648,-1.5626,-1.5644,-1.5636,-1.5532,-1.5531,-1.5531,-1.553,0,0,0,0,0,0,0,-1.6219,-1.6331,-1.6182,-1.603,-1.6015,-1.5994,-1.5991,-1.5988,-1.574,-1.5734,-1.5727,-1.5722,-1.554,-1.5539,-1.5537,-1.5653,0,0,-1.5532,-1.5532,0,0,0,0,0,0,0,0,-1.6333,-1.6332,-1.6182,-1.6179,-1.6177,-1.5994,-1.5991,-1.5989,-1.5739,-1.5734,-1.5729,-1.5724,-1.554,-1.5539,-1.5538,0,0,0,0,0,0,0,0,0,0,0,0,0,0,0,-1.6181,-1.6179,0,-1.5993,-1.5991,-1.5989,-1.5738,-1.5734,-1.573,-1.5726,-1.554,-1.5539,-1.5538,0,0,0,0,0,0,0,0,0,0,0,0,0,0,0,0,0,0,0,0,0,0,0,0,0,0,0,0,0,0,0,0,0,0,0,0,0,0,0,0,0,0,0,0,0,0,0,0,0,0,0,0,0,0,0,0,0,0,0,0,0,0,0,0,0,0,0,0,0]}],[{"header":{"parameterUnit":"kt","parameterCategory":2,"dx":1,"dy":1,"la1":30.253999710083008,"la2":30.299108505249023,"lo1":-89.0895004272461,"lo2":-89.04439544677734,"nx":28,"ny":28,"refTime":"2022-09-18T21:00:00:Z","depth":0,"parameterNumber":2,"parameterNumberName":"V-component_of_WINDS"},"data":[5.4057,5.4059,5.4101,5.4121,5.4163,5.4183,5.4203,5.4234,5.4268,5.4296,5.4319,5.436,5.4409,5.4445,5.447,5.4488,5.4494,5.4464,5.4489,5.4588,5.4605,5.462,5.4623,5.4466,5.4465,5.4379,5.4378,5.4377,5.4125,5.4166,5.419,5.4241,5.4261,5.4316,5.4361,5.4373,5.4389,5.4432,5.4457,5.4484,5.451,5.4571,5.4602,5.4602,5.4627,5.4607,5.4606,5.4612,5.4721,5.4723,5.4585,5.4585,5.4585,5.4585,5.4585,5.4585,5.4259,5.4259,5.4315,5.4342,5.4379,5.4413,5.4419,5.4471,5.4493,5.4533,5.4579,5.4597,5.4646,5.4705,5.4734,5.4748,5.4778,5.4767,5.4764,5.476,5.4748,5.4864,5.4756,5.4756,5.4757,5.4757,5.4758,0,5.437,5.4406,5.4432,5.447,5.4492,5.4526,5.4563,5.4568,5.4657,5.4671,5.4696,5.4716,5.4757,5.4782,5.4821,5.4855,5.4909,5.4921,5.4913,5.4889,5.4863,5.4874,5.5047,5.4923,5.4924,5.4925,5.4926,5.4927,5.4506,5.4502,5.4582,5.4594,5.4626,5.4645,5.4664,5.4744,5.476,5.4817,5.4812,5.484,5.4867,5.4897,5.4955,5.4984,5.501,5.4958,5.5015,5.4993,5.5006,5.5004,5.5003,5.4944,5.4941,5.494,5.4938,0,5.4578,5.4649,5.4655,5.4736,5.4755,5.4745,5.4813,5.4815,5.4866,5.4875,5.4882,5.4959,5.4981,5.5049,5.5087,5.5121,5.5101,5.5128,5.5084,5.5092,5.505,5.5052,5.4907,5.4891,5.5058,5.5056,5.5055,0,5.4721,5.4711,5.4817,5.4817,5.4809,5.489,5.4879,5.4922,5.4968,5.4976,5.5052,5.5058,5.5145,5.5159,5.521,5.5206,5.5214,5.5239,5.5252,5.5231,5.5227,5.5237,5.5243,5.5285,5.5286,5.5287,5.5287,0,5.4824,5.4871,5.4872,5.4894,5.4978,5.4976,5.501,5.5063,5.5081,5.5116,5.5128,5.5161,5.5179,5.5203,5.5267,5.5303,5.5265,5.5328,5.529,5.5288,5.5276,5.5275,5.5133,5.5288,5.5288,5.5288,5.5289,0,5.4949,5.4985,5.4977,5.5049,5.5058,5.5058,5.5098,5.5115,5.5164,5.5197,5.5225,5.5283,5.5288,5.5344,5.5351,5.5379,5.5391,5.5417,5.5415,5.5417,5.5477,5.5384,5.5245,5.5232,5.5422,5.5423,5.5424,0,5.5046,5.5058,5.5128,5.5118,5.5133,5.5218,5.522,5.5263,5.5307,5.5325,5.5373,5.5392,5.5449,5.5464,5.5459,5.5508,5.5472,5.5516,5.5534,5.5533,5.5516,5.5389,5.535,5.5269,5.5439,5.5437,5.5436,0,5.513,5.5235,5.5229,5.5257,5.5328,5.5341,5.5343,5.5381,5.5389,5.5429,5.5431,5.546,5.5504,5.5527,5.5578,5.5569,5.5499,5.5616,5.5619,5.559,5.5453,5.5416,5.5402,5.5534,5.5533,5.5531,5.5448,0,5.5299,5.5315,5.5301,5.5361,5.5383,5.5381,5.5457,5.5469,5.5517,5.5564,5.5569,5.5622,5.5657,5.5661,5.5707,5.5665,5.5682,5.5728,5.5786,5.5703,5.5678,5.5667,5.5818,5.5821,5.5822,5.5824,0,0,5.5372,5.5398,5.5475,5.5482,5.5504,5.5594,5.5585,5.5617,5.5678,5.5691,5.5725,5.5772,5.5812,5.581,5.579,5.5806,5.5804,5.583,5.5743,5.5733,5.5725,5.5696,5.5684,5.5827,5.5828,5.5828,5.5829,0,5.545,5.5494,5.5487,5.5524,5.5582,5.5634,5.5632,5.5704,5.5734,5.5742,5.5812,5.5824,5.586,5.5893,5.5914,5.5833,5.5884,5.5839,5.577,5.5759,5.5747,5.5737,5.5706,5.5694,5.5833,5.5833,5.5833,0,5.5544,5.56,5.5605,5.5663,5.5701,5.5714,5.5795,5.5806,5.5815,5.5909,5.5915,5.5953,5.6004,5.5993,5.5991,5.6021,5.5952,5.5988,5.5978,5.5979,5.5971,5.5957,5.5944,5.611,5.6111,5.6111,0,0,5.56,5.5616,5.57,5.5685,5.5704,5.5781,5.5796,5.5845,5.5891,5.5908,5.5959,5.5999,5.6021,5.6033,5.6057,5.6036,5.6051,5.6019,5.6006,5.5995,5.5989,5.5979,5.5965,5.6114,5.6114,5.6114,0,0,5.5626,5.5723,5.5764,5.5757,5.5799,5.5879,5.5865,5.5917,5.5947,5.5955,5.6036,5.6051,5.6043,5.6077,5.6103,5.6078,5.6135,5.613,5.6056,5.604,5.6028,5.6018,5.619,0,0,0,0,0,5.5744,5.5712,5.5748,5.5758,5.5831,5.5859,5.5869,5.5937,5.5975,5.5963,5.6014,5.6068,5.6108,5.6132,5.6139,5.6109,5.6146,5.6141,5.6135,5.6035,5.6018,5.6004,0,0,0,0,0,0,5.5749,5.5761,5.5749,5.5826,5.5844,5.5861,5.5941,5.5959,5.5978,5.5989,5.6057,5.6071,5.6127,5.6133,5.6138,5.6108,5.6188,5.6144,5.6139,5.6135,5.6029,5.6015,5.6003,0,0,0,0,0,5.5752,5.5763,5.5862,5.5827,5.5842,5.5925,5.5943,5.5958,5.5974,5.6053,5.6068,5.6024,5.6125,5.6134,5.6136,5.6104,5.6184,5.6186,5.6141,5.6137,5.6134,5.6022,0,0,0,0,0,0,5.5756,5.5776,5.5867,5.5874,5.5845,5.5926,5.5941,5.5957,5.6038,5.6053,5.6024,5.6031,5.6123,5.613,5.6137,5.6099,5.6182,5.6184,5.6185,5.6138,5.6135,5.6132,0,0,0,0,0,0,5.5771,5.5781,5.587,5.5889,5.5899,5.5926,5.5939,5.5951,5.6038,5.6005,5.6014,5.6026,5.6111,5.6127,5.6133,5.6148,5.618,5.6181,5.6183,5.6183,5.6136,5.6133,0,0,0,0,0,0,5.5777,5.5785,5.5888,5.5895,5.5904,5.5987,5.5937,5.6007,5.6056,5.6,5.6062,5.6065,5.6107,5.6114,5.613,5.6142,5.6147,5.618,5.6181,5.6182,5.6182,0,0,0,0,0,0,0,5.5781,5.5707,5.5826,5.59,5.5908,5.5938,5.594,5.5942,5.6057,5.6059,5.6062,5.6064,5.6169,5.6171,5.6173,5.6137,0,0,5.6179,5.618,0,0,0,0,0,0,0,0,5.5705,5.5706,5.5826,5.5827,5.5829,5.5938,5.594,5.5941,5.6057,5.6059,5.6061,5.6063,5.617,5.6171,5.6173,0,0,0,0,0,0,0,0,0,0,0,0,0,0,0,5.5826,5.5827,0,5.5938,5.594,5.5941,5.6058,5.6059,5.6061,5.6062,5.617,5.6171,5.6173,0,0,0,0,0,0,0,0,0,0,0,0,0,0,0,0,0,0,0,0,0,0,0,0,0,0,0,0,0,0,0,0,0,0,0,0,0,0,0,0,0,0,0,0,0,0,0,0,0,0,0,0,0,0,0,0,0,0,0,0,0,0,0,0,0,0,0,0,0]}]]]